Location: Whitehorse
(60.7170°N, 135.0500°W)
Time: 01:36:54
(UTC-08:00)

Envisat - Pass Details

Date: 24 October 2019
Orbit: 764 x 766 km, 98.1° (Epoch: 19 November)

Event Time Altitude Azimuth Distance (km) Brightness Sun altitude
Rises 21:26:35 0° 214° (SW) 3,228 6.5 -22.8°
Reaches altitude 10° 21:29:36 10° 233° (SW) 2,307 5.9 -23.2°
Maximum altitude 21:33:04 18° 276° (W) 1,807 5.8 -23.6°
Drops below altitude 10° 21:36:34 10° 320° (NW) 2,317 6.3 -24.0°
Sets 21:39:37 0° 339° (NNW) 3,248 6.8 -24.3°
